Weather History for KTMB - September, 2013

Change the Weather History Date:

Monday, September 30, 2013

  Actual Average Record
Temperature  
Mean Temperature 80 °F -  
Max Temperature 89 °F 87 °F 93 °F (1992)
Min Temperature 71 °F 72 °F 70 °F (1992)
Cooling Degree Days 15    
Growing Degree Days 30 (Base 50)    
Moisture  
Dew Point 71 °F    
Average Humidity 75    
Maximum Humidity 96    
Minimum Humidity 59    
Precipitation  
Precipitation 0.00 in - - ()
Sea Level Pressure  
Sea Level Pressure 29.95 in    
Wind  
Wind Speed 4 mph (East)    
Max Wind Speed 18 mph    
Max Gust Speed -    
Visibility 10 miles    
Events      
Averages and records for this station are not official NWS values.
T = Trace of Precipitation, MM = Missing Value Source: NWS Daily Summary

Daily Weather History Graph

Daily Weather History Graph

Search for Another Location

Airport or City:

Trip Planner

Search our weather history database for the weather conditions in past years. The results will help you decide how hot, cold, wet, or windy it might be!

Date:

Astronomy

Sep. 30, 2013 Rise Set
Actual Time 7:13 AM EDT 7:09 PM EDT
Civil Twilight 6:50 AM EDT 7:32 PM EDT
Nautical Twilight 6:24 AM EDT 7:58 PM EDT
Astronomical Twilight 5:57 AM EDT 8:25 PM EDT
Moon 3:11 AM EDT (9/30) 4:19 PM EDT (9/30)
Length of Visible Light 12h 41m
Length of Day
11h 55m
Waning Crescent, 19% of the Moon is Illuminated
Sep 30
Waning Crescent
Oct 4
New
Oct 11
First Quarter
Oct 18
Full
Oct 26
Last Quarter

Hourly Weather History & Observations

Time (EDT) Temp. Heat Index Dew Point Humidity Pressure Visibility Wind Dir Wind Speed Gust Speed Precip Events Conditions
12:53 AM 73.9 °F - 69.1 °F 85% 29.95 in 10.0 mi Calm Calm - N/A   Clear
1:53 AM 75.0 °F - 69.1 °F 82% 29.94 in 10.0 mi Calm Calm - N/A   Clear
2:53 AM 73.9 °F - 69.1 °F 85% 29.93 in 10.0 mi Calm Calm - N/A   Partly Cloudy
3:53 AM 72.0 °F - 70.0 °F 93% 29.91 in 10.0 mi Calm Calm - N/A   Partly Cloudy
4:53 AM 71.1 °F - 70.0 °F 96% 29.91 in 10.0 mi Calm Calm - N/A   Clear
5:53 AM 71.1 °F - 70.0 °F 96% 29.93 in 10.0 mi Calm Calm - N/A   Clear
6:53 AM 72.0 °F - 70.0 °F 93% 29.94 in 10.0 mi Calm Calm - N/A   Clear
7:53 AM 73.9 °F - 71.1 °F 91% 29.95 in 10.0 mi Calm Calm - N/A   Clear
8:53 AM 81.0 °F 85.8 °F 73.0 °F 77% 29.96 in 10.0 mi Calm Calm - N/A   Clear
9:10 AM 82.4 °F 88.2 °F 73.4 °F 74% 29.97 in 10.0 mi ENE 4.6 mph - N/A   Partly Cloudy
9:53 AM 82.9 °F 87.0 °F 70.0 °F 65% 29.97 in 10.0 mi ESE 9.2 mph - N/A   Scattered Clouds
10:53 AM 84.0 °F 88.4 °F 70.0 °F 63% 29.97 in 10.0 mi ESE 10.4 mph - N/A   Scattered Clouds
11:53 AM 87.1 °F 92.8 °F 71.1 °F 59% 29.96 in 10.0 mi East 10.4 mph - N/A   Partly Cloudy
12:53 PM 88.0 °F 94.7 °F 72.0 °F 59% 29.95 in 10.0 mi ESE 11.5 mph - N/A   Scattered Clouds
1:53 PM 89.1 °F 97.0 °F 73.0 °F 59% 29.94 in 10.0 mi East 10.4 mph - N/A   Partly Cloudy
2:53 PM 89.1 °F 97.0 °F 73.0 °F 59% 29.92 in 10.0 mi East 12.7 mph - N/A   Partly Cloudy
3:53 PM 87.1 °F 95.4 °F 73.9 °F 65% 29.91 in 10.0 mi East 13.8 mph - N/A   Scattered Clouds
4:53 PM 86.0 °F 93.0 °F 73.0 °F 65% 29.91 in 10.0 mi East 18.4 mph - N/A   Partly Cloudy
5:53 PM 82.9 °F 88.0 °F 72.0 °F 69% 29.93 in 10.0 mi ESE 11.5 mph - N/A   Scattered Clouds
6:53 PM 82.0 °F 86.3 °F 71.1 °F 69% 29.95 in 10.0 mi East 10.4 mph - N/A   Clear
7:53 PM 81.0 °F 84.9 °F 71.1 °F 72% 29.96 in 10.0 mi East 6.9 mph - N/A   Scattered Clouds
8:53 PM 81.0 °F 85.2 °F 72.0 °F 74% 29.98 in 10.0 mi East 9.2 mph - N/A   Mostly Cloudy
9:53 PM 81.0 °F 84.9 °F 71.1 °F 72% 29.99 in 10.0 mi East 11.5 mph - N/A   Mostly Cloudy
10:53 PM 81.0 °F 84.4 °F 70.0 °F 69% 30.01 in 10.0 mi ESE 8.1 mph - N/A   Mostly Cloudy
11:53 PM 80.1 °F 83.6 °F 71.1 °F 74% 30.00 in 10.0 mi East 8.1 mph - N/A   Overcast